| time (UTC) | temp F | wind direction | speed MPH | gust MPH | rain 1hr in | rain 24hr in | rain mn in | humidity % | barometer mb |
| 20260506011532 | 51 | 0 | 1.0 | 12.0 | 0.00 | 0.01 | 0.01 | 53 | 1008.4 |
| 20260506010030 | 51 | 0 | 1.0 | 12.0 | 0.00 | 0.01 | 0.01 | 53 | 1008.5 |
| 20260506004531 | 52 | 61 | 1.0 | 12.0 | 0.00 | 0.01 | 0.01 | 57 | 1008.3 |
| 20260506003030 | 50 | 0 | 1.0 | 11.0 | 0.00 | 0.01 | 0.01 | 57 | 1008.3 |
| 20260506001526 | 50 | 128 | 1.0 | 11.0 | 0.00 | 0.01 | 0.01 | 58 | 1008.4 |
| 20260506000038 | 50 | 148 | 2.0 | 10.0 | 0.00 | 0.01 | 0.01 | 57 | 1008.2 |
| 20260505234529 | 50 | 0 | 0.0 | 4.0 | 0.00 | 0.01 | 0.01 | 60 | 1008.3 |
| 20260505233030 | 50 | 0 | 0.0 | 2.0 | 0.00 | 0.01 | 0.01 | 66 | 1008.3 |
| 20260505231530 | 49 | 0 | 0.0 | 0.0 | 0.00 | 0.01 | 0.01 | 67 | 1008.3 |
| 20260505230036 | 49 | 0 | 0.0 | 3.0 | 0.00 | 0.01 | 0.01 | 67 | 1008.3 |
| 20260505224529 | 49 | 298 | 1.0 | 6.0 | 0.00 | 0.01 | 0.01 | 69 | 1008.3 |
| 20260505223034 | 49 | 309 | 0.0 | 3.0 | 0.00 | 0.01 | 0.01 | 67 | 1008.2 |
| 20260505221527 | 49 | 269 | 0.0 | 6.0 | 0.00 | 0.01 | 0.01 | 71 | 1008.2 |
| 20260505220034 | 48 | 0 | 0.0 | 4.0 | 0.00 | 0.01 | 0.01 | 74 | 1008.2 |
| 20260505214539 | 47 | 0 | 0.0 | 9.0 | 0.00 | 0.01 | 0.01 | 77 | 1008.0 |
| 20260505213029 | 48 | 241 | 0.0 | 3.0 | 0.00 | 0.01 | 0.01 | 76 | 1008.0 |
| 20260505211534 | 47 | 0 | 0.0 | 1.0 | 0.00 | 0.01 | 0.01 | 75 | 1007.9 |
| 20260505210029 | 47 | 314 | 2.0 | 6.0 | 0.00 | 0.01 | 0.01 | 78 | 1007.7 |
| 20260505204532 | 47 | 0 | 2.0 | 7.0 | 0.00 | 0.01 | 0.01 | 78 | 1007.6 |
| 20260505203028 | 46 | 292 | 1.0 | 6.0 | 0.00 | 0.01 | 0.01 | 80 | 1007.6 |
| 20260505201529 | 46 | 313 | 1.0 | 8.0 | 0.00 | 0.01 | 0.01 | 82 | 1007.5 |
| 20260505200041 | 46 | 319 | 2.0 | 5.0 | 0.00 | 0.01 | 0.01 | 83 | 1007.5 |
| 20260505194531 | 45 | 316 | 2.0 | 7.0 | 0.00 | 0.01 | 0.01 | 86 | 1007.2 |
| 20260505193029 | 44 | 0 | 0.0 | 5.0 | 0.00 | 0.01 | 0.01 | 88 | 1007.2 |
| 20260505191530 | 44 | 0 | 1.0 | 4.0 | 0.00 | 0.01 | 0.01 | 90 | 1007.3 |
| 20260505190031 | 44 | 0 | 0.0 | 3.0 | 0.00 | 0.01 | 0.01 | 91 | 1007.2 |
| 20260505184530 | 43 | 313 | 0.0 | 2.0 | 0.00 | 0.01 | 0.01 | 93 | 1007.2 |
| 20260505183033 | 43 | 0 | 0.0 | 2.0 | 0.00 | 0.01 | 0.01 | 96 | 1007.2 |
| 20260505181530 | 42 | 0 | 0.0 | 3.0 | 0.00 | 0.01 | 0.01 | 96 | 1007.2 |
| 20260505180030 | 42 | 5 | 0.0 | 3.0 | 0.00 | 0.01 | 0.01 | 97 | 1007.1 |
| 20260505174530 | 41 | 0 | 0.0 | 0.0 | 0.00 | 0.05 | 0.01 | 97 | 1007.0 |
| 20260505173028 | 41 | 0 | 0.0 | 0.0 | 0.00 | 0.05 | 0.01 | 98 | 1007.0 |
| 20260505171529 | 41 | 0 | 0.0 | 0.0 | 0.00 | 0.05 | 0.01 | 98 | 1006.7 |
| 20260505170029 | 40 | 0 | 0.0 | 0.0 | 0.00 | 0.05 | 0.01 | 98 | 1006.5 |
| 20260505164530 | 40 | 0 | 0.0 | 0.0 | 0.00 | 0.07 | 0.01 | 98 | 1006.4 |
| 20260505163032 | 40 | 0 | 0.0 | 0.0 | 0.00 | 0.07 | 0.01 | 98 | 1006.3 |
| 20260505161529 | 40 | 0 | 0.0 | 1.0 | 0.00 | 0.07 | 0.01 | 98 | 1006.2 |
| 20260505153035 | 39 | 104 | 0.0 | 3.0 | 0.00 | 0.08 | 0.01 | 98 | 1005.8 |
| 20260505151531 | 39 | 0 | 0.0 | 3.0 | 0.00 | 0.08 | 0.01 | 98 | 1005.8 |
| 20260505124536 | 37 | 0 | 0.0 | 0.0 | 0.01 | 0.18 | 0.01 | 97 | 1004.8 |
| 20260505123031 | 37 | 235 | 1.0 | 4.0 | 0.00 | 0.17 | 0.00 | 98 | 1004.9 |
| 20260505121535 | 37 | 0 | 0.0 | 3.0 | 0.00 | 0.17 | 0.00 | 97 | 1004.8 |
| 20260505120041 | 37 | 0 | 1.0 | 3.0 | 0.00 | 0.17 | 0.00 | 97 | 1005.0 |
| 20260505114532 | 38 | 0 | 0.0 | 0.0 | 0.00 | 0.19 | 0.00 | 97 | 1005.0 |
| 20260505113031 | 37 | 0 | 0.0 | 6.0 | 0.00 | 0.19 | 0.00 | 97 | 1005.1 |
| 20260505111530 | 37 | 0 | 0.0 | 0.0 | 0.00 | 0.19 | 0.00 | 97 | 1005.4 |
| 20260505101540 | 38 | 0 | 0.0 | 0.0 | 0.00 | 0.21 | 0.00 | 97 | 1005.2 |
| 20260505100030 | 38 | 0 | 0.0 | 0.0 | 0.00 | 0.21 | 0.00 | 97 | 1005.2 |
| 20260505094536 | 39 | 0 | 0.0 | 0.0 | 0.00 | 0.23 | 0.00 | 97 | 1005.4 |
| 20260505093031 | 39 | 0 | 0.0 | 0.0 | 0.00 | 0.23 | 0.00 | 97 | 1005.4 |
| 20260505091535 | 39 | 0 | 0.0 | 3.0 | 0.00 | 0.23 | 0.00 | 97 | 1005.6 |
| 20260505090031 | 39 | 109 | 0.0 | 1.0 | 0.00 | 0.23 | 0.00 | 97 | 1005.6 |
| 20260505084530 | 39 | 0 | 0.0 | 1.0 | 0.00 | 0.25 | 0.00 | 97 | 1005.6 |
| 20260505083028 | 39 | 0 | 0.0 | 0.0 | 0.00 | 0.25 | 0.00 | 97 | 1005.6 |
| 20260505081528 | 40 | 0 | 0.0 | 0.0 | 0.00 | 0.25 | 0.00 | 97 | 1005.7 |
| 20260505080028 | 40 | 0 | 0.0 | 0.0 | 0.00 | 0.25 | 0.00 | 97 | 1005.9 |
| 20260505074531 | 40 | 0 | 0.0 | 0.0 | 0.00 | 0.27 | 0.25 | 97 | 1006.1 |
| 20260505073030 | 40 | 0 | 0.0 | 0.0 | 0.00 | 0.27 | 0.25 | 97 | 1006.0 |
| 20260505071534 | 40 | 0 | 0.0 | 0.0 | 0.00 | 0.27 | 0.25 | 97 | 1006.0 |
| 20260505070029 | 40 | 0 | 0.0 | 0.0 | 0.00 | 0.27 | 0.25 | 97 | 1006.2 |
| 20260505064530 | 40 | 0 | 0.0 | 3.0 | 0.00 | 0.30 | 0.25 | 96 | 1006.2 |
| 20260505063027 | 40 | 0 | 0.0 | 0.0 | 0.00 | 0.30 | 0.25 | 96 | 1006.2 |
| 20260505061530 | 40 | 342 | 2.0 | 5.0 | 0.00 | 0.30 | 0.25 | 96 | 1005.9 |
| 20260505060041 | 41 | 24 | 1.0 | 5.0 | 0.00 | 0.30 | 0.25 | 96 | 1006.4 |
| 20260505054557 | 41 | 331 | 0.0 | 6.0 | 0.00 | 0.32 | 0.25 | 96 | 1006.4 |
| 20260505053027 | 42 | 0 | 0.0 | 0.0 | 0.00 | 0.32 | 0.25 | 95 | 1006.4 |
| 20260505051529 | 42 | 0 | 0.0 | 2.0 | 0.00 | 0.32 | 0.25 | 95 | 1006.5 |
| 20260505041528 | 43 | 0 | 0.0 | 3.0 | 0.00 | 0.36 | 0.25 | 95 | 1007.2 |
| 20260505040030 | 43 | 348 | 0.0 | 5.0 | 0.00 | 0.36 | 0.25 | 95 | 1007.3 |
| 20260505034532 | 43 | 0 | 0.0 | 0.0 | 0.00 | 0.41 | 0.25 | 94 | 1007.5 |
| 20260505033028 | 43 | 0 | 0.0 | 3.0 | 0.00 | 0.41 | 0.25 | 95 | 1007.8 |
| 20260505031528 | 43 | 0 | 0.0 | 4.0 | 0.00 | 0.41 | 0.25 | 94 | 1007.8 |
| 20260505030028 | 43 | 0 | 0.0 | 0.0 | 0.00 | 0.41 | 0.25 | 94 | 1008.2 |
| 20260505024531 | 43 | 0 | 0.0 | 3.0 | 0.00 | 0.45 | 0.25 | 94 | 1008.5 |
| 20260505023029 | 43 | 0 | 1.0 | 4.0 | 0.00 | 0.45 | 0.25 | 94 | 1008.8 |
| 20260505021531 | 43 | 346 | 2.0 | 9.0 | 0.00 | 0.45 | 0.25 | 94 | 1009.1 |
| 20260505020028 | 43 | 5 | 0.0 | 5.0 | 0.00 | 0.45 | 0.25 | 95 | 1009.0 |
| 20260505014530 | 43 | 0 | 0.0 | 5.0 | 0.00 | 0.48 | 0.25 | 96 | 1009.2 |
| 20260505013027 | 43 | 0 | 1.0 | 5.0 | 0.00 | 0.48 | 0.25 | 97 | 1009.7 |